Duluth Sky Harbor, MN

9:13 AM CDT on March 25, 2017 (GMT -0500)
Sky Harbor

Weather History for KDYT - May, 2014

Change the Weather History Date:

Friday, May 2, 2014

  Actual Average Record
Temperature  
Mean Temperature 45 °F -  
Max Temperature 53 °F 54 °F 86 °F (1992)
Min Temperature 37 °F 34 °F 21 °F (1961)
Degree Days  
Heating Degree Days 20    
Moisture  
Dew Point 39 °F    
Average Humidity 78    
Maximum Humidity 93    
Minimum Humidity 58    
Precipitation  
Precipitation 0.00 in - - ()
Sea Level Pressure  
Sea Level Pressure 29.67 in    
Wind  
Wind Speed 0 mph (WNW)    
Max Wind Speed 14 mph    
Max Gust Speed 17 mph    
Visibility 10 miles    
Events Rain    
Averages and records for this station are not official NWS values.
T = Trace of Precipitation, MM = Missing Value Source: NWS Daily Summary

Daily Weather History Graph

Daily Weather History Graph

Search for Another Location

Airport or City:

Trip Planner

Search our weather history database for the weather conditions in past years. The results will help you decide how hot, cold, wet, or windy it might be!

Date:

Astronomy

May. 02, 2014 Rise Set
Actual Time 5:51 AM CDT 8:19 PM CDT
Civil Twilight 5:17 AM CDT 8:53 PM CDT
Nautical Twilight 4:35 AM CDT 9:35 PM CDT
Astronomical Twilight 3:47 AM CDT 10:24 PM CDT
Moon 8:25 AM CDT (5/2) 11:45 PM CDT (5/2)
Length of Visible Light 15h 35m
Length of Day
14h 27m
Waxing Crescent, 12% of the Moon is Illuminated
May 2
Waxing Crescent
May 6
First Quarter
May 14
Full
May 21
Last Quarter
May 28
New

Hourly Weather History & Observations

Time (CDT) Temp. Windchill Dew Point Humidity Pressure Visibility Wind Dir Wind Speed Gust Speed Precip Events Conditions
12:13 AM 44.6 °F - 37.4 °F 76% 29.78 in 10.0 mi Calm Calm - N/A   Overcast
12:33 AM 42.8 °F - 37.4 °F 81% 29.77 in 10.0 mi Calm Calm - N/A   Overcast
12:54 AM 44.6 °F - 37.4 °F 76% 29.77 in 10.0 mi Calm Calm - N/A   Overcast
1:13 AM 44.6 °F - 37.4 °F 76% 29.76 in 10.0 mi Calm Calm - N/A   Overcast
1:33 AM 42.8 °F - 37.4 °F 81% 29.76 in 10.0 mi Calm Calm - N/A   Overcast
1:53 AM 42.8 °F - 37.4 °F 81% 29.76 in 10.0 mi Calm Calm - N/A   Overcast
2:14 AM 41.0 °F - 37.4 °F 87% 29.75 in 10.0 mi Calm Calm - N/A   Overcast
2:33 AM 41.0 °F - 37.4 °F 87% 29.74 in 10.0 mi Calm Calm - N/A   Overcast
2:53 AM 41.0 °F - 37.4 °F 87% 29.74 in 10.0 mi Calm Calm - N/A   Overcast
3:14 AM 41.0 °F - 37.4 °F 87% 29.74 in 10.0 mi Calm Calm - N/A   Overcast
3:33 AM 41.0 °F - 37.4 °F 87% 29.74 in 10.0 mi Calm Calm - N/A   Overcast
3:53 AM 41.0 °F - 37.4 °F 87% 29.74 in 10.0 mi Calm Calm - N/A   Overcast
4:14 AM 39.2 °F - 35.6 °F 87% 29.73 in 10.0 mi Calm Calm - N/A   Mostly Cloudy
4:33 AM 39.2 °F - 35.6 °F 87% 29.73 in 10.0 mi Calm Calm - N/A   Mostly Cloudy
4:53 AM 39.2 °F - 35.6 °F 87% 29.72 in 10.0 mi Calm Calm - N/A   Scattered Clouds
5:14 AM 39.2 °F - 35.6 °F 87% 29.72 in 10.0 mi Calm Calm - N/A   Clear
5:33 AM 37.4 °F - 35.6 °F 93% 29.71 in 10.0 mi Calm Calm - N/A   Clear
5:53 AM 37.4 °F - 35.6 °F 93% 29.70 in 10.0 mi Calm Calm - N/A   Clear
6:13 AM 37.4 °F - 35.6 °F 93% 29.70 in 10.0 mi Calm Calm - N/A   Clear
6:33 AM 37.4 °F - 35.6 °F 93% 29.69 in 10.0 mi Calm Calm - N/A   Scattered Clouds
6:54 AM 37.4 °F - 35.6 °F 93% 29.69 in 10.0 mi Calm Calm - N/A   Scattered Clouds
7:13 AM 37.4 °F - 35.6 °F 93% 29.69 in 10.0 mi Calm Calm - N/A   Scattered Clouds
7:33 AM 39.2 °F - 35.6 °F 87% 29.69 in 10.0 mi Calm Calm - N/A   Clear
7:54 AM 39.2 °F - 37.4 °F 93% 29.69 in 10.0 mi Calm Calm - N/A   Scattered Clouds
8:13 AM 41.0 °F - 37.4 °F 87% 29.68 in 10.0 mi Calm Calm - N/A   Mostly Cloudy
8:34 AM 42.8 °F - 37.4 °F 81% 29.68 in 10.0 mi Calm Calm - N/A   Overcast
8:53 AM 44.6 °F - 39.2 °F 81% 29.68 in 10.0 mi Calm Calm - N/A   Overcast
9:13 AM 44.6 °F - 39.2 °F 81% 29.67 in 10.0 mi Calm Calm - N/A   Mostly Cloudy
9:34 AM 46.4 °F - 39.2 °F 76% 29.66 in 10.0 mi Calm Calm - N/A   Overcast
9:53 AM 46.4 °F - 39.2 °F 76% 29.66 in 10.0 mi Calm Calm - N/A   Overcast
10:13 AM 46.4 °F - 39.2 °F 76% 29.66 in 10.0 mi Calm Calm - N/A   Overcast
10:33 AM 46.4 °F - 39.2 °F 76% 29.66 in 10.0 mi Calm Calm - N/A   Overcast
10:53 AM 46.4 °F - 39.2 °F 76% 29.66 in 10.0 mi Calm Calm - N/A   Overcast
11:14 AM 48.2 °F - 39.2 °F 71% 29.65 in 10.0 mi Calm Calm - N/A   Mostly Cloudy
11:33 AM 50.0 °F - 41.0 °F 71% 29.65 in 10.0 mi Calm Calm - N/A   Mostly Cloudy
11:53 AM 51.8 °F - 41.0 °F 67% 29.65 in 10.0 mi Calm Calm - N/A   Scattered Clouds
12:14 PM 51.8 °F - 39.2 °F 62% 29.64 in 10.0 mi Calm Calm - N/A   Scattered Clouds
12:33 PM 53.6 °F - 39.2 °F 58% 29.64 in 10.0 mi Calm Calm - N/A   Scattered Clouds
12:53 PM 51.8 °F - 39.2 °F 62% 29.64 in 10.0 mi Calm Calm - N/A   Scattered Clouds
1:14 PM 51.8 °F - 39.2 °F 62% 29.64 in 10.0 mi Calm Calm - N/A   Scattered Clouds
1:33 PM 51.8 °F - 39.2 °F 62% 29.64 in 10.0 mi Calm Calm - N/A   Scattered Clouds
1:53 PM 51.8 °F - 41.0 °F 67% 29.64 in 10.0 mi Calm Calm - N/A   Scattered Clouds
2:13 PM 51.8 °F - 41.0 °F 67% 29.63 in 10.0 mi Calm Calm - N/A   Mostly Cloudy
2:33 PM 50.0 °F - 39.2 °F 66% 29.63 in 10.0 mi Calm Calm - N/A   Overcast
2:54 PM 50.0 °F - 39.2 °F 66% 29.63 in 10.0 mi Calm Calm - N/A   Overcast
3:13 PM 51.8 °F - 39.2 °F 62% 29.63 in 10.0 mi Calm Calm - N/A   Overcast
3:33 PM 51.8 °F - 39.2 °F 62% 29.63 in 10.0 mi Calm Calm - N/A   Overcast
3:53 PM 51.8 °F - 41.0 °F 67% 29.63 in 10.0 mi Calm Calm - N/A   Overcast
4:14 PM 51.8 °F - 41.0 °F 67% 29.63 in 10.0 mi Calm Calm - N/A   Overcast
4:33 PM 48.2 °F - 39.2 °F 71% 29.63 in 10.0 mi Calm Calm - N/A   Overcast
4:53 PM 48.2 °F - 39.2 °F 71% 29.63 in 10.0 mi Calm Calm - N/A   Overcast
5:13 PM 48.2 °F - 39.2 °F 71% 29.63 in 10.0 mi Calm Calm - N/A   Overcast
5:33 PM 46.4 °F - 39.2 °F 76% 29.63 in 10.0 mi Calm Calm - N/A   Overcast
5:54 PM 46.4 °F - 39.2 °F 76% 29.63 in 10.0 mi Calm Calm - N/A   Overcast
6:13 PM 46.4 °F - 39.2 °F 76% 29.62 in 10.0 mi Calm Calm - N/A   Mostly Cloudy
6:33 PM 46.4 °F - 39.2 °F 76% 29.62 in 10.0 mi Calm Calm - N/A   Drizzle
6:54 PM 46.4 °F - 39.2 °F 76% 29.62 in 10.0 mi Calm Calm - N/A Rain Light Rain
7:13 PM 46.4 °F - 39.2 °F 76% 29.62 in 10.0 mi Calm Calm - N/A   Light Drizzle
7:34 PM 46.4 °F - 42.8 °F 87% 29.62 in 10.0 mi Calm Calm - N/A   Light Drizzle
7:53 PM 46.4 °F - 42.8 °F 87% 29.62 in 10.0 mi Calm Calm - N/A   Drizzle
8:14 PM 46.4 °F - 42.8 °F 87% 29.63 in 10.0 mi Calm Calm - N/A   Light Drizzle
8:33 PM 41.0 °F - 37.4 °F 87% 29.63 in 10.0 mi Calm Calm - N/A   Overcast
8:53 PM 44.6 °F - 41.0 °F 87% 29.63 in 10.0 mi Calm Calm - N/A   Overcast
9:14 PM 46.4 °F - 42.8 °F 87% 29.63 in 10.0 mi Calm Calm - N/A   Overcast
9:33 PM 48.2 °F - 42.8 °F 82% 29.63 in 10.0 mi Calm Calm - N/A   Overcast
9:54 PM 48.2 °F - 42.8 °F 82% 29.63 in 10.0 mi Calm Calm - N/A   Overcast
10:13 PM 46.4 °F - 42.8 °F 87% 29.63 in 10.0 mi Calm Calm - N/A   Mostly Cloudy
10:33 PM 46.4 °F 40.4 °F 41.0 °F 81% 29.64 in 10.0 mi WNW 13.8 mph 17.3 mph N/A   Scattered Clouds
10:54 PM 46.4 °F 45.2 °F 37.4 °F 71% 29.64 in 10.0 mi West 3.5 mph 10.4 mph N/A   Mostly Cloudy
11:13 PM 46.4 °F 41.5 °F 37.4 °F 71% 29.64 in 10.0 mi West 10.4 mph - N/A   Overcast
11:34 PM 46.4 °F 41.9 °F 37.4 °F 71% 29.64 in 10.0 mi West 9.2 mph - N/A   Overcast
11:53 PM 46.4 °F 40.4 °F 37.4 °F 71% 29.64 in 10.0 mi WNW 13.8 mph - N/A   Overcast